When you browse on this site, cookies collect data to enhance your experience and personalize the content and advertising you see.
Visit our Privacy Policy to learn more. By continuing to use the site, you agree to this use of cookies and data.
  • In Schweiz
  • Länderverzeichnis
  • Für 7 Tage
  • Wassertemperatur
  • Satellitenkarten
  • Wetterkarte
  • Widgets
  • user-avatar
    Anmelden

    Stündliche Wetter Sewan

    Heute, 17 Juni, Montag

    Zeit Temperatur Niederschläge Wind Luftdruck Luftfeuchtigkeit
    00:00 +19°C° 0.2 mm 2 m/S 640 mmHg 58%
    01:00 +18°C° 0.1 mm 2 m/S 640 mmHg 59%
    02:00 +18°C° 0.1 mm 2 m/S 640 mmHg 60%
    03:00 +17°C° 0 mm 2 m/S 640 mmHg 58%
    04:00 +18°C° 0 mm 2 m/S 640 mmHg 59%
    05:00 +20°C° 0 mm 1 m/S 640 mmHg 60%
    06:00 +21°C° 0 mm 1 m/S 640 mmHg 61%
    07:00 +22°C° 0.1 mm 1 m/S 641 mmHg 56%
    08:00 +24°C° 0.1 mm 1 m/S 641 mmHg 50%
    09:00 +26°C° 0.1 mm 1 m/S 642 mmHg 45%
    10:00 +27°C° 0.1 mm 1 m/S 642 mmHg 42%
    11:00 +28°C° 0.1 mm 2 m/S 642 mmHg 39%
    12:00 +29°C° 0.1 mm 2 m/S 642 mmHg 36%
    13:00 +28°C° 0 mm 3 m/S 641 mmHg 38%
    14:00 +28°C° 0 mm 3 m/S 641 mmHg 40%
    15:00 +27°C° 0 mm 4 m/S 641 mmHg 43%
    16:00 +26°C° 0.2 mm 3 m/S 641 mmHg 47%
    17:00 +25°C° 0.2 mm 3 m/S 641 mmHg 51%
    18:00 +24°C° 0.2 mm 2 m/S 641 mmHg 55%
    19:00 +23°C° 0.2 mm 2 m/S 641 mmHg 58%
    20:00 +20°C° 0.2 mm 2 m/S 641 mmHg 61%
    21:00 +19°C° 0.2 mm 2 m/S 641 mmHg 63%
    22:00 +18°C° 0.3 mm 2 m/S 641 mmHg 66%
    23:00 +18°C° 0.3 mm 2 m/S 641 mmHg 68%

    Morgen, 18 Juni, Dienstag

    Zeit Temperatur Niederschläge Wind Luftdruck Luftfeuchtigkeit
    00:00 +17°C° 0.3 mm 2 m/S 641 mmHg 70%
    01:00 +17°C° 0 mm 2 m/S 640 mmHg 70%
    02:00 +16°C° 0 mm 1 m/S 640 mmHg 71%
    03:00 +16°C° 0 mm 1 m/S 640 mmHg 71%
    04:00 +18°C° 0 mm 1 m/S 640 mmHg 69%
    05:00 +19°C° 0 mm 1 m/S 640 mmHg 68%
    06:00 +19°C° 0 mm 1 m/S 641 mmHg 67%
    07:00 +21°C° 0.1 mm 1 m/S 641 mmHg 62%
    08:00 +23°C° 0.1 mm 1 m/S 641 mmHg 57%
    09:00 +24°C° 0.1 mm 2 m/S 642 mmHg 52%
    10:00 +25°C° 0.2 mm 2 m/S 642 mmHg 48%
    11:00 +26°C° 0.2 mm 2 m/S 642 mmHg 44%
    12:00 +27°C° 0.2 mm 2 m/S 642 mmHg 41%
    13:00 +28°C° 0.1 mm 2 m/S 641 mmHg 39%
    14:00 +28°C° 0.1 mm 2 m/S 641 mmHg 37%
    15:00 +28°C° 0.1 mm 2 m/S 641 mmHg 35%
    16:00 +28°C° 0.1 mm 2 m/S 641 mmHg 40%
    17:00 +27°C° 0.1 mm 1 m/S 641 mmHg 45%
    18:00 +26°C° 0.1 mm 1 m/S 640 mmHg 50%
    19:00 +24°C° 0.5 mm 2 m/S 640 mmHg 54%
    20:00 +20°C° 0.5 mm 3 m/S 640 mmHg 59%
    21:00 +18°C° 0.5 mm 3 m/S 640 mmHg 64%
    22:00 +18°C° 0.2 mm 3 m/S 640 mmHg 66%
    23:00 +17°C° 0.2 mm 2 m/S 640 mmHg 67%

    übermorgen, 19 Juni, Mittwoch

    Zeit Temperatur Niederschläge Wind Luftdruck Luftfeuchtigkeit
    00:00 +18°C° 0.2 mm 1 m/S 640 mmHg 69%
    01:00 +16°C° 0.1 mm 1 m/S 640 mmHg 70%
    02:00 +16°C° 0.1 mm 1 m/S 640 mmHg 71%
    03:00 +16°C° 0.1 mm 1 m/S 639 mmHg 72%
    04:00 +18°C° 0 mm 1 m/S 640 mmHg 71%
    05:00 +18°C° 0 mm 1 m/S 640 mmHg 70%
    06:00 +19°C° 0 mm 1 m/S 640 mmHg 69%
    07:00 +21°C° 0.2 mm 1 m/S 640 mmHg 65%
    08:00 +22°C° 0.2 mm 1 m/S 641 mmHg 61%
    09:00 +23°C° 0.2 mm 1 m/S 641 mmHg 56%
    10:00 +25°C° 0.4 mm 1 m/S 641 mmHg 52%
    11:00 +26°C° 0.4 mm 1 m/S 641 mmHg 48%
    12:00 +27°C° 0.4 mm 1 m/S 641 mmHg 44%
    13:00 +27°C° 0.4 mm 1 m/S 641 mmHg 43%
    14:00 +27°C° 0.4 mm 1 m/S 641 mmHg 41%
    15:00 +28°C° 0.4 mm 1 m/S 641 mmHg 40%
    16:00 +27°C° 0.2 mm 2 m/S 641 mmHg 45%
    17:00 +26°C° 0.2 mm 2 m/S 641 mmHg 49%
    18:00 +26°C° 0.2 mm 2 m/S 640 mmHg 53%
    19:00 +24°C° 0 mm 2 m/S 640 mmHg 56%
    20:00 +21°C° 0 mm 2 m/S 640 mmHg 58%
    21:00 +19°C° 0 mm 2 m/S 640 mmHg 60%
    22:00 +19°C° 0 mm 2 m/S 640 mmHg 61%
    23:00 +18°C° 0 mm 2 m/S 640 mmHg 61%

    20 Juni, Donnerstag

    Zeit Temperatur Niederschläge Wind Luftdruck Luftfeuchtigkeit
    00:00 +18°C° 0 mm 2 m/S 640 mmHg 62%
    01:00 +18°C° 0 mm 2 m/S 639 mmHg 63%
    02:00 +17°C° 0 mm 2 m/S 639 mmHg 63%
    03:00 +17°C° 0 mm 2 m/S 639 mmHg 64%
    04:00 +17°C° 0 mm 2 m/S 639 mmHg 64%
    05:00 +18°C° 0 mm 2 m/S 640 mmHg 64%
    06:00 +20°C° 0 mm 1 m/S 640 mmHg 65%
    07:00 +22°C° 0.1 mm 1 m/S 640 mmHg 60%
    08:00 +23°C° 0.1 mm 1 m/S 641 mmHg 55%
    09:00 +25°C° 0.1 mm 1 m/S 641 mmHg 51%
    10:00 +26°C° 0.5 mm 2 m/S 641 mmHg 48%
    11:00 +27°C° 0.5 mm 2 m/S 641 mmHg 45%
    12:00 +28°C° 0.5 mm 2 m/S 641 mmHg 42%
    13:00 +28°C° 0.6 mm 2 m/S 640 mmHg 41%
    14:00 +28°C° 0.6 mm 3 m/S 640 mmHg 39%
    15:00 +29°C° 0.6 mm 3 m/S 640 mmHg 38%
    16:00 +28°C° 0.1 mm 3 m/S 640 mmHg 43%
    17:00 +27°C° 0.1 mm 2 m/S 639 mmHg 47%
    18:00 +26°C° 0.1 mm 2 m/S 639 mmHg 52%
    19:00 +24°C° 0.2 mm 2 m/S 639 mmHg 57%
    20:00 +21°C° 0.2 mm 2 m/S 639 mmHg 62%
    21:00 +19°C° 0.2 mm 3 m/S 639 mmHg 66%
    22:00 +18°C° 0.3 mm 2 m/S 639 mmHg 67%
    23:00 +18°C° 0.3 mm 2 m/S 639 mmHg 68%

    21 Juni, Freitag

    Zeit Temperatur Niederschläge Wind Luftdruck Luftfeuchtigkeit
    00:00 +18°C° 0.3 mm 2 m/S 638 mmHg 69%
    01:00 +17°C° 0.6 mm 2 m/S 638 mmHg 71%
    02:00 +17°C° 0.6 mm 2 m/S 638 mmHg 73%
    03:00 +16°C° 0.6 mm 2 m/S 638 mmHg 76%
    04:00 +17°C° 0.4 mm 2 m/S 638 mmHg 75%
    05:00 +19°C° 0.4 mm 1 m/S 639 mmHg 74%
    06:00 +19°C° 0.4 mm 1 m/S 639 mmHg 73%
    07:00 +21°C° 0.2 mm 1 m/S 639 mmHg 68%
    08:00 +22°C° 0.2 mm 1 m/S 640 mmHg 64%
    09:00 +24°C° 0.2 mm 1 m/S 640 mmHg 60%
    10:00 +25°C° 0.7 mm 2 m/S 640 mmHg 55%
    11:00 +26°C° 0.7 mm 2 m/S 640 mmHg 51%
    12:00 +27°C° 0.7 mm 2 m/S 640 mmHg 47%
    13:00 +27°C° 0.9 mm 2 m/S 640 mmHg 47%
    14:00 +27°C° 0.9 mm 2 m/S 640 mmHg 47%
    15:00 +28°C° 0.9 mm 2 m/S 640 mmHg 46%
    16:00 +27°C° 0.4 mm 2 m/S 640 mmHg 50%
    17:00 +26°C° 0.4 mm 3 m/S 640 mmHg 54%
    18:00 +25°C° 0.4 mm 3 m/S 640 mmHg 58%
    19:00 +24°C° 0.4 mm 3 m/S 640 mmHg 62%
    20:00 +21°C° 0.4 mm 3 m/S 640 mmHg 67%
    21:00 +19°C° 0.4 mm 2 m/S 640 mmHg 71%
    22:00 +18°C° 0 mm 2 m/S 640 mmHg 73%
    23:00 +17°C° 0 mm 2 m/S 640 mmHg 74%

    22 Juni, Samstag

    Zeit Temperatur Niederschläge Wind Luftdruck Luftfeuchtigkeit
    00:00 +17°C° 0 mm 2 m/S 640 mmHg 76%
    01:00 +17°C° 0 mm 2 m/S 640 mmHg 76%
    02:00 +16°C° 0 mm 2 m/S 640 mmHg 76%
    03:00 +16°C° 0 mm 2 m/S 640 mmHg 76%
    04:00 +17°C° 0 mm 2 m/S 640 mmHg 74%
    05:00 +18°C° 0 mm 2 m/S 641 mmHg 73%
    06:00 +18°C° 0 mm 2 m/S 641 mmHg 72%
    07:00 +20°C° 0 mm 2 m/S 642 mmHg 67%
    08:00 +21°C° 0 mm 2 m/S 642 mmHg 62%
    09:00 +24°C° 0 mm 2 m/S 643 mmHg 58%
    10:00 +25°C° 0.3 mm 2 m/S 643 mmHg 55%
    11:00 +26°C° 0.3 mm 2 m/S 643 mmHg 53%
    12:00 +27°C° 0.3 mm 2 m/S 643 mmHg 50%
    13:00 +27°C° 0.3 mm 2 m/S 643 mmHg 49%
    14:00 +28°C° 0.3 mm 2 m/S 643 mmHg 47%
    15:00 +28°C° 0.3 mm 2 m/S 642 mmHg 46%
    16:00 +28°C° 0.3 mm 2 m/S 642 mmHg 50%
    17:00 +27°C° 0.3 mm 2 m/S 642 mmHg 54%
    18:00 +26°C° 0.3 mm 3 m/S 642 mmHg 59%
    19:00 +25°C° 0.1 mm 3 m/S 642 mmHg 61%
    20:00 +22°C° 0.1 mm 3 m/S 642 mmHg 63%
    21:00 +20°C° 0.1 mm 3 m/S 642 mmHg 66%
    22:00 +20°C° 0 mm 3 m/S 642 mmHg 66%
    23:00 +19°C° 0 mm 3 m/S 642 mmHg 66%
    Mehr zeigen